Theta_e
359 358 358 357 356 353 347 340 316 324 321 312 314 317 314 327 329 326 324 327 323 330 333 334 334 333 330 328 327 330 331 324 328 314 311 333 347 348 351 349 350 352 352 353 355 353 359 363 365 365 366 366 366 366 367 367 367 367 367 368 367 367 368 368 368 368 367 368 369 368 368 367 367 366 365 365 365 365 365 365 364 364 364 364 364 364 364 364 364 362 361 362 361 361 361 361 360
357 357 357 357 351 347 333 337 317 312 315 312 312 320 318 324 324 321 322 325 326 329 333 334 335 336 335 333 332 331 329 332 335 333 338 345 349 350 352 351 352 351 352 353 353 354 357 362 365 365 366 366 366 366 367 367 367 367 367 367 367 368 369 368 367 367 367 367 368 368 367 367 366 365 364 364 364 364 364 364 364 364 364 364 364 364 363 363 362 362 361 361 360 360 361 362 361
357 356 356 356 349 344 339 335 311 307 305 305 309 318 324 320 320 323 326 327 330 332 333 334 334 334 332 333 326 327 320 337 337 339 339 347 342 345 352 352 352 352 352 352 353 353 356 361 365 366 366 365 365 365 366 367 367 367 367 367 367 369 368 368 367 367 367 368 368 368 367 366 365 364 365 364 364 364 364 364 364 364 364 364 364 364 364 363 361 361 363 364 362 362 362 362 362
358 358 352 349 336 342 328 321 313 309 306 307 309 318 321 322 322 325 328 331 332 333 333 331 328 335 331 326 329 335 332 332 339 339 336 342 343 349 351 352 353 352 352 352 352 353 355 362 365 366 366 364 365 365 366 366 367 367 367 367 368 368 368 368 367 367 367 367 367 367 367 365 365 364 365 365 365 365 364 363 363 364 364 365 365 364 363 363 361 362 362 364 363 362 362 361 362
356 357 354 347 337 327 325 315 315 312 306 310 307 317 322 324 324 326 330 333 333 333 332 331 329 334 335 332 333 327 330 338 340 343 342 347 351 351 352 353 352 351 351 352 353 353 356 363 364 365 364 365 364 364 365 366 366 366 367 367 367 367 367 367 367 367 368 368 368 367 366 365 365 365 365 365 365 364 364 364 363 364 364 364 364 363 363 363 362 361 362 361 362 363 363 362 361
354 351 353 349 332 339 323 312 314 310 314 318 315 318 322 325 325 328 330 333 334 334 334 332 328 328 329 332 336 331 338 330 340 343 345 345 350 352 353 354 352 351 353 354 354 354 356 363 363 363 363 364 365 365 364 365 365 366 367 367 367 367 367 367 367 367 367 368 367 366 366 365 365 365 365 365 365 365 364 364 364 364 364 364 364 364 364 364 363 364 363 361 361 362 363 362 361
346 346 344 344 337 334 316 310 312 313 318 322 318 320 323 325 328 329 329 329 332 332 334 330 333 331 326 333 338 342 345 345 341 343 348 349 351 352 354 353 352 352 354 354 355 355 356 362 364 363 364 363 364 365 365 365 366 366 366 367 367 367 367 367 367 367 367 367 367 367 367 366 366 367 366 366 365 365 365 365 365 365 364 364 364 364 364 365 364 364 363 362 362 362 363 363 363
353 342 338 326 322 320 313 313 315 317 318 324 324 322 324 325 330 329 328 327 325 325 329 332 333 330 328 339 329 343 348 348 347 349 350 350 351 352 353 353 352 352 354 355 355 355 361 362 363 364 363 363 364 365 365 365 365 365 366 367 367 367 366 366 366 366 367 367 367 367 367 367 366 367 366 365 364 366 366 365 365 365 364 365 365 364 364 364 363 363 363 362 363 362 363 363 363
348 342 343 328 318 319 313 314 316 323 322 325 324 328 331 329 331 329 327 329 329 330 330 331 332 324 328 333 332 341 344 348 349 351 350 351 351 352 352 352 351 352 353 355 356 357 358 362 362 363 363 364 363 364 365 365 364 366 366 366 367 367 366 365 365 366 366 367 366 366 366 366 365 365 365 365 365 366 366 364 364 364 364 365 364 364 363 363 363 363 362 362 362 362 363 363 363
343 339 324 322 318 312 312 313 313 316 321 325 324 324 327 329 330 330 328 328 329 330 331 335 334 327 333 328 333 339 341 348 349 348 350 350 351 352 352 352 353 352 353 354 356 356 357 363 361 361 362 364 363 364 365 365 365 366 366 366 366 366 366 365 365 366 366 366 365 365 365 365 365 364 366 365 365 366 365 365 364 364 363 364 364 363 362 362 362 362 363 362 362 363 362 362 362
335 341 337 321 312 309 309 310 313 317 318 323 325 326 328 332 331 329 331 329 332 329 332 335 330 330 332 332 335 346 347 348 346 344 349 350 351 351 351 353 353 353 352 354 356 357 357 357 362 362 363 364 364 364 365 364 365 365 366 365 365 365 365 365 365 366 366 366 364 364 365 365 364 365 365 365 365 365 366 365 364 365 363 364 364 364 363 363 362 362 362 363 364 363 363 364 363
330 329 329 315 311 310 311 310 313 315 318 319 322 326 328 331 332 329 329 327 329 330 330 333 328 335 330 331 333 343 346 346 346 348 349 351 351 351 351 352 353 354 354 354 357 357 358 358 356 362 364 365 364 364 364 365 365 365 365 365 365 365 365 365 365 365 366 365 364 364 364 364 364 364 365 364 364 365 365 365 365 364 364 364 364 364 363 362 362 363 363 363 363 363 364 364 364
329 330 323 315 311 313 315 313 313 318 318 315 320 325 331 331 329 330 330 330 330 328 328 335 336 335 326 329 338 342 342 345 348 349 350 351 351 352 352 352 353 353 354 357 356 357 358 358 360 361 363 365 364 363 364 365 365 365 365 365 365 365 364 365 365 365 365 366 365 363 364 364 364 364 364 364 364 364 365 366 366 365 365 364 363 363 362 363 363 363 364 364 363 363 364 363 362
332 328 322 313 317 313 313 312 313 313 308 314 322 330 332 330 332 333 331 327 328 327 333 338 336 335 330 333 335 337 341 347 348 350 351 351 351 351 351 352 352 353 355 356 355 357 358 359 360 360 361 361 359 362 364 364 364 364 365 365 366 365 364 365 365 365 365 365 365 364 364 364 364 364 364 363 364 364 365 366 366 364 363 365 364 363 362 363 363 363 364 363 362 362 363 363 363
334 333 324 318 314 312 315 312 312 313 309 315 324 330 331 334 335 333 331 327 328 336 338 341 338 331 325 329 329 335 342 346 348 350 350 350 350 350 351 351 352 353 354 355 356 357 357 358 359 359 360 359 359 359 359 361 364 365 365 366 366 366 365 365 365 364 364 364 366 365 365 365 363 364 365 364 365 366 365 366 365 363 363 363 364 363 363 361 361 363 361 361 361 362 361 362 363
339 332 322 314 308 310 313 314 315 308 308 316 327 331 331 333 336 331 333 334 331 337 337 330 339 332 332 333 333 340 345 347 348 349 348 348 348 349 350 350 351 352 353 354 355 357 358 358 358 359 359 359 358 359 359 359 364 365 365 366 366 366 366 365 365 364 364 364 365 366 365 365 364 362 364 364 366 365 365 366 364 364 363 364 362 364 361 360 361 361 362 360 361 361 360 361 363
343 337 318 313 311 312 312 312 308 304 309 319 329 331 327 328 334 336 339 336 330 331 333 335 333 339 335 335 341 344 347 348 348 346 346 345 345 346 347 348 349 350 352 353 354 356 357 357 357 358 358 359 358 358 358 358 362 365 365 366 366 366 366 365 365 365 364 363 363 365 365 364 358 358 360 359 365 362 365 364 364 363 365 365 364 361 361 361 361 361 360 362 362 362 360 360 361
333 323 318 313 316 314 317 315 314 313 311 323 328 330 329 326 331 333 336 333 332 332 331 334 337 337 339 342 345 346 347 345 344 343 343 342 343 342 343 345 347 346 349 351 354 355 356 356 356 357 357 357 357 358 358 358 361 364 360 361 363 363 365 365 362 359 365 357 362 362 358 362 358 354 355 366 361 363 361 363 363 364 364 363 362 364 362 360 360 360 361 361 362 362 362 358 361
325 318 316 315 314 318 322 320 320 315 313 323 327 330 329 328 332 333 328 327 329 328 329 332 332 335 340 342 344 344 345 343 342 342 342 341 341 340 341 343 345 346 347 350 352 355 355 355 356 356 356 356 356 357 357 357 359 360 359 359 361 365 365 364 359 362 355 355 355 355 360 358 357 355 358 361 364 365 365 364 364 364 363 364 363 363 363 363 362 363 364 363 363 362 355 350 352
329 320 314 316 320 321 323 324 324 322 319 323 326 328 329 331 332 335 328 326 328 325 326 328 329 331 336 340 342 343 344 342 342 342 342 341 341 341 340 342 343 345 347 350 351 354 355 355 356 356 356 356 356 356 357 356 356 358 357 357 357 358 359 361 357 357 354 353 355 355 357 356 358 354 365 366 364 363 363 367 364 363 363 366 364 366 365 363 365 364 361 360 364 359 348 348 348
325 323 317 319 323 320 323 325 325 324 326 326 326 328 328 331 333 333 329 326 326 327 330 329 329 333 336 339 340 342 342 342 340 342 342 341 342 342 341 343 343 345 348 350 351 352 354 355 356 356 357 356 356 356 357 355 356 356 356 355 356 355 357 356 356 355 354 353 354 356 356 356 357 355 354 357 360 358 357 357 360 359 361 357 365 350 351 352 351 347 348 353 345 350 351 347 347
326 323 326 326 326 321 325 325 328 321 327 327 326 325 326 332 331 331 330 324 323 327 331 332 334 336 337 338 340 342 341 341 340 341 341 341 341 341 342 343 345 346 349 347 349 351 354 356 357 356 357 356 356 356 356 357 358 355 355 355 355 356 356 355 354 355 354 354 354 356 357 355 355 356 353 355 357 354 354 354 355 355 353 355 359 349 347 347 347 349 349 348 347 347 347 346 346
320 324 325 328 327 323 327 327 325 319 324 324 324 328 330 328 327 332 330 327 330 335 334 334 337 338 340 341 341 340 340 340 341 341 341 341 341 341 342 343 343 343 346 346 349 351 354 356 357 357 356 356 356 357 358 358 357 356 355 356 355 355 354 354 353 354 354 354 355 357 357 354 354 353 354 354 355 355 353 353 353 355 352 351 354 349 347 349 347 348 347 347 347 347 348 347 347
325 320 324 324 326 324 327 326 328 322 319 324 328 330 327 326 322 330 328 328 333 335 335 336 338 340 341 339 340 340 340 340 340 342 343 342 342 342 342 342 343 345 345 346 347 350 354 355 356 356 356 356 356 357 357 357 357 356 356 360 359 357 356 354 353 353 354 355 356 356 359 354 353 352 354 353 354 354 354 354 354 352 350 350 352 348 347 348 347 346 346 346 346 346 347 347 347
322 321 325 325 324 324 325 326 325 325 320 324 327 326 326 326 326 328 326 328 333 334 336 337 339 339 339 339 339 340 340 341 341 342 343 343 343 344 344 344 344 344 343 344 346 348 352 355 355 355 356 355 355 356 356 356 357 357 357 358 357 361 356 355 354 354 353 354 356 356 358 354 353 353 353 353 354 355 354 353 351 351 351 350 350 349 347 346 347 345 348 345 345 345 344 345 345
325 323 325 324 323 324 324 324 324 324 324 321 321 325 326 327 329 326 326 331 334 335 335 336 338 337 338 338 339 339 339 340 341 341 342 343 343 343 342 343 343 342 343 344 345 347 351 353 354 353 354 355 354 355 355 355 356 356 356 356 356 361 356 355 355 353 353 353 354 356 356 356 354 353 353 353 354 353 352 351 352 350 349 349 351 349 349 347 347 345 344 344 345 345 345 345 348
323 324 324 323 323 323 324 322 323 324 323 317 317 321 322 323 326 316 330 333 335 334 334 336 336 336 337 338 339 340 340 340 341 342 342 342 342 342 342 343 343 343 344 343 345 347 351 351 352 353 353 356 354 353 354 354 355 355 355 356 355 357 357 356 355 354 353 352 354 356 356 357 356 353 352 353 354 353 350 349 349 348 347 348 351 349 348 349 349 346 345 344 343 344 345 345 348
319 317 319 322 323 323 323 322 322 323 321 318 316 315 319 318 323 319 330 334 335 333 333 334 335 335 337 338 339 340 340 341 342 342 340 340 341 342 342 342 343 343 343 343 345 348 350 350 351 352 352 354 354 353 355 354 354 354 355 354 354 355 357 355 354 354 356 352 354 355 356 356 359 352 351 353 353 352 348 348 348 345 347 347 351 350 349 352 350 348 347 346 347 347 346 345 345
316 314 309 310 313 317 321 320 321 322 319 318 317 312 309 315 318 322 332 334 334 333 333 333 334 335 336 337 339 339 339 341 342 341 341 343 343 344 343 345 345 344 345 345 347 349 349 349 349 351 352 353 353 352 353 354 353 354 354 353 354 355 355 355 353 353 353 353 354 355 356 356 357 352 351 352 358 351 349 347 346 348 348 348 349 352 351 350 350 349 348 352 349 347 345 344 347
310 308 307 305 304 304 312 320 321 320 320 319 316 304 304 313 318 328 333 333 334 332 331 333 333 335 336 337 338 338 340 340 340 341 342 343 344 345 344 345 346 346 345 346 348 348 350 351 351 351 352 352 353 353 353 353 353 353 354 353 355 354 353 353 354 353 354 353 354 354 356 356 357 352 351 352 354 351 349 348 348 348 348 348 349 352 350 349 349 347 347 349 352 347 343 343 340
304 305 306 299 298 300 307 313 317 315 320 319 318 306 307 310 320 330 333 334 332 330 331 332 333 334 335 336 337 338 339 340 341 342 343 344 345 346 346 346 347 347 347 346 347 348 351 350 351 350 353 352 355 353 354 353 353 352 352 352 353 353 353 353 353 353 352 353 354 354 356 357 358 354 353 352 353 351 351 350 350 350 351 349 350 351 350 350 349 349 349 342 342 342 340 346 339
303 299 296 297 298 301 305 308 313 312 317 320 316 308 309 313 323 330 333 333 332 329 331 332 332 333 334 335 336 337 338 340 341 342 343 344 345 345 346 346 347 347 347 347 347 349 349 350 352 350 352 352 353 354 353 353 353 352 352 356 352 352 352 352 353 353 352 353 354 354 355 357 359 356 354 353 352 352 351 350 350 349 351 350 350 350 349 349 347 345 348 342 341 340 341 336 338
299 299 296 297 297 299 301 307 309 316 317 318 316 307 314 316 325 330 332 332 331 329 330 331 332 333 334 335 336 337 337 339 340 342 343 344 345 346 347 347 347 347 347 347 347 348 348 349 353 351 351 351 352 353 353 352 353 351 351 352 352 352 351 352 352 353 353 352 353 354 355 357 359 356 355 354 353 352 351 350 349 350 352 350 349 348 348 348 345 346 343 348 340 338 338 338 336
295 298 296 298 298 299 298 304 308 314 317 313 317 311 312 318 325 329 331 331 330 329 329 331 332 333 334 335 336 336 336 337 338 340 342 344 345 345 347 350 348 348 347 348 348 348 347 349 350 351 352 352 352 353 353 352 352 352 351 351 354 351 351 352 352 352 352 353 354 354 355 357 358 356 357 355 352 353 352 349 349 350 352 350 348 347 346 345 343 343 341 344 343 339 336 335 333
295 295 295 297 298 299 300 299 303 315 316 314 314 311 312 319 324 327 330 331 330 329 330 330 331 332 333 334 335 335 336 336 338 340 342 343 344 345 346 347 348 347 347 347 347 348 348 348 350 351 352 352 352 352 353 352 351 351 351 351 351 352 351 351 351 350 352 354 354 354 355 356 359 355 357 357 353 353 352 349 349 350 352 349 348 348 344 345 345 343 341 339 346 340 338 334 331
297 297 297 297 297 298 298 302 306 314 312 312 313 311 311 319 323 326 328 330 328 329 330 330 331 332 332 333 334 335 335 336 339 340 342 343 344 345 345 346 347 347 347 347 347 347 347 347 348 349 351 352 352 351 352 350 350 349 348 349 349 351 351 351 351 350 351 353 355 355 355 356 357 356 356 357 354 354 351 348 349 351 351 349 347 346 344 343 344 342 339 339 336 336 335 333 330
300 299 299 298 298 299 302 303 306 309 312 312 313 313 313 318 322 325 327 329 328 328 328 329 330 330 331 332 333 334 335 336 339 340 341 342 343 344 345 345 346 346 346 346 346 346 346 346 347 347 350 351 351 350 349 349 347 347 348 348 347 349 350 350 351 350 349 352 354 355 355 356 357 357 357 356 354 358 352 349 350 350 350 349 348 347 347 346 344 343 341 343 332 329 329 331 334
300 299 297 297 298 298 303 304 306 311 311 309 313 313 313 318 323 325 327 327 325 326 327 328 329 330 331 331 332 333 335 338 338 338 339 340 341 342 343 343 345 343 344 345 345 345 346 346 346 347 349 351 351 350 349 349 349 348 347 347 348 348 349 350 349 350 349 351 353 354 356 356 357 358 359 357 356 354 351 350 350 350 349 348 348 348 346 351 347 342 339 334 331 328 326 332 334
300 298 298 296 298 300 303 304 306 308 311 305 309 309 311 318 322 325 325 326 327 328 329 328 329 329 329 331 332 333 334 334 336 337 338 338 339 341 342 343 343 344 343 344 345 345 345 345 346 347 349 350 350 351 350 349 349 350 349 348 349 347 350 352 351 351 352 350 352 354 357 357 358 358 358 358 356 354 352 350 350 350 349 350 347 345 346 344 343 342 336 331 328 330 333 336 334
299 298 295 296 300 299 296 300 304 308 308 304 308 309 309 315 321 323 326 326 327 329 329 330 330 329 329 330 332 332 332 333 333 334 335 337 338 339 340 341 342 343 343 343 344 344 345 346 346 347 348 349 349 350 352 350 351 351 350 350 350 349 348 351 351 351 350 350 350 353 356 357 358 358 358 357 357 354 352 350 350 350 349 350 348 346 345 344 341 339 335 333 328 327 327 329 340
300 299 298 298 299 300 299 301 303 305 306 308 307 308 307 310 312 317 324 327 327 327 329 329 330 331 332 332 333 333 333 333 333 334 335 335 336 337 339 341 342 342 342 342 344 344 345 345 346 346 347 348 349 351 351 350 351 350 349 349 349 348 349 349 347 347 349 350 351 352 354 356 357 358 358 357 357 354 353 351 350 350 349 349 348 346 345 345 343 340 336 333 329 327 327 329 334
298 301 301 301 301 299 300 301 302 298 298 304 308 299 299 307 310 316 320 323 323 325 325 326 328 329 330 329 331 333 334 334 334 334 334 335 336 337 338 340 341 341 342 343 344 345 345 345 346 346 347 348 348 349 350 351 349 348 346 345 344 344 344 344 344 345 346 348 349 351 354 356 356 356 357 357 356 355 353 351 350 349 348 349 349 346 345 343 341 339 335 333 330 329 329 329 329
295 299 303 302 302 300 300 300 300 294 294 299 310 300 293 304 307 312 317 319 320 322 323 325 326 328 328 329 330 332 332 333 334 335 335 335 335 336 337 339 341 341 342 344 345 345 345 345 345 346 347 348 349 348 349 351 349 348 347 346 346 344 344 345 346 347 347 349 350 350 352 354 355 355 355 356 355 356 354 351 350 349 349 349 352 347 343 343 342 340 336 333 332 337 330 327 328
296 302 302 302 300 300 301 300 299 296 303 303 308 304 297 298 306 311 316 316 318 318 320 323 325 326 328 328 330 331 332 333 333 333 334 335 335 336 336 339 341 342 343 344 344 345 344 345 345 346 347 349 349 349 348 350 348 348 347 346 347 345 345 345 346 346 347 349 348 349 350 353 355 355 354 354 355 356 355 352 350 349 348 349 352 348 345 344 342 341 339 336 334 338 332 330 329
300 302 302 301 301 300 301 300 298 298 298 296 298 305 298 297 304 312 313 311 314 315 317 320 322 325 327 328 329 331 332 333 333 333 334 335 335 336 337 338 341 343 344 343 344 345 345 346 346 346 346 348 349 349 349 348 350 349 348 347 346 347 346 346 347 348 347 349 347 348 349 351 353 355 355 354 355 356 357 353 351 350 349 349 353 349 345 344 341 340 338 335 333 336 333 332 331
302 302 302 302 302 302 301 299 298 298 295 293 298 301 296 291 299 306 310 310 311 313 316 319 321 323 325 327 328 330 332 333 334 334 335 335 336 337 338 339 341 342 344 346 345 345 345 346 346 346 346 347 349 349 350 348 348 350 348 347 346 346 347 346 346 346 346 347 347 347 348 349 351 353 354 354 355 355 356 355 352 351 351 350 353 349 346 342 340 339 339 337 336 335 332 335 332
303 301 301 301 300 299 299 299 298 297 291 295 299 300 299 292 297 306 306 309 312 314 315 318 321 322 324 327 328 329 331 332 333 333 334 336 338 338 338 338 339 342 344 345 345 345 345 345 345 345 346 348 349 349 350 348 348 348 347 347 346 345 346 345 344 345 345 345 346 346 347 349 350 352 353 354 354 355 355 356 353 352 352 353 353 348 344 342 340 339 339 338 337 335 333 333 338
302 298 296 295 296 297 295 295 297 290 290 295 299 299 300 292 292 302 312 316 316 315 314 315 318 320 322 324 327 329 331 332 333 333 333 335 336 337 338 338 338 340 342 343 345 345 345 345 345 345 345 347 349 350 350 349 349 348 348 348 347 347 346 346 344 344 346 345 346 346 347 348 349 351 352 352 353 355 355 355 355 353 352 350 349 347 344 341 340 338 337 337 337 336 334 335 333
300 297 295 292 286 290 288 291 289 290 289 293 297 298 295 296 298 303 311 315 316 317 317 317 318 320 321 323 326 328 330 332 332 333 333 334 334 335 336 338 338 339 340 342 344 345 345 345 345 344 345 346 349 350 350 350 349 349 349 348 348 348 347 347 346 345 346 346 347 347 347 347 348 349 350 351 352 354 355 353 353 351 350 349 348 345 342 339 338 337 336 336 336 334 335 334 331
298 296 293 289 287 286 284 285 286 287 291 295 296 298 295 295 301 306 310 315 318 319 320 320 320 320 321 322 324 327 329 331 332 333 333 334 334 335 337 337 338 339 340 341 343 344 345 346 345 345 345 346 348 350 350 350 350 350 350 350 349 350 348 348 347 346 346 348 348 347 348 348 348 349 350 351 352 354 355 354 354 352 351 348 347 344 342 338 337 336 336 335 335 335 333 332 332
298 299 296 294 291 286 284 285 287 288 289 293 296 295 290 296 297 306 311 317 319 321 321 322 322 321 321 322 324 326 327 330 332 332 333 333 334 335 336 337 338 339 340 341 342 344 345 345 345 345 345 346 347 348 350 350 350 350 351 351 351 351 350 349 349 348 347 347 348 348 348 349 349 350 351 352 353 353 354 354 353 351 349 346 345 343 343 339 338 337 337 336 336 334 332 332 330
297 300 299 294 294 294 289 288 289 289 289 290 293 292 295 299 303 308 312 315 318 320 321 322 321 322 322 320 320 323 326 328 331 332 333 334 335 335 336 337 338 339 339 341 342 343 344 345 346 346 346 346 347 348 348 350 351 351 351 351 351 351 352 350 349 350 349 348 349 349 348 349 350 351 352 352 352 353 353 352 352 351 349 346 344 342 340 338 337 335 335 335 333 336 333 330 329
295 297 294 296 299 298 292 296 296 295 291 290 294 297 296 299 303 304 308 311 314 317 319 320 320 321 321 320 320 321 324 327 329 332 333 333 334 335 336 337 338 339 339 340 341 343 343 344 345 345 346 347 347 349 348 349 350 350 351 351 351 351 351 350 349 349 349 349 349 349 349 350 351 351 352 353 352 352 352 352 350 349 347 345 342 341 340 338 336 336 335 332 332 333 334 331 329
294 294 296 300 304 301 295 287 290 290 286 289 292 293 292 296 293 304 306 307 311 314 317 319 319 320 319 320 321 321 323 325 328 331 333 334 335 335 336 337 338 339 339 340 341 343 344 345 345 345 346 346 347 348 349 349 349 349 350 351 351 351 351 351 350 349 350 349 348 349 349 349 350 352 353 353 352 351 351 354 348 347 346 344 342 340 339 338 336 334 334 333 333 332 333 332 331
302 297 301 298 290 291 292 291 287 285 286 286 287 292 294 295 296 300 302 306 309 311 314 316 317 318 319 320 322 322 323 324 326 329 331 333 334 335 336 337 338 339 340 340 341 343 344 344 345 346 346 347 348 349 350 350 350 350 350 351 351 351 351 351 351 351 350 349 348 349 349 350 350 351 352 352 351 350 350 350 347 346 344 343 340 339 338 337 336 334 333 333 332 331 331 330 331
303 300 298 299 295 294 291 292 289 290 285 287 286 290 293 298 298 300 303 306 309 311 312 314 317 318 319 320 321 323 323 323 325 327 330 332 334 335 336 336 337 338 339 341 341 342 343 344 345 345 347 348 348 349 350 350 350 350 350 351 351 352 352 352 352 351 350 349 349 349 349 349 350 351 351 351 351 350 349 348 347 345 343 341 338 338 337 336 335 334 333 332 332 331 330 330 330
298 296 296 295 297 297 298 295 294 290 286 283 286 286 293 296 300 303 303 305 308 310 312 314 317 318 319 321 322 323 324 324 325 326 328 331 333 335 336 337 338 339 340 341 341 342 343 344 344 346 345 346 347 348 349 350 351 350 351 350 350 351 351 352 352 352 351 350 350 350 350 350 350 349 350 350 350 349 348 348 346 345 343 340 337 336 335 335 335 333 332 332 331 332 330 329 330
300 298 296 297 295 291 291 290 296 293 290 286 285 288 293 295 305 307 305 305 307 309 312 314 316 319 320 321 322 323 324 325 326 326 328 329 332 334 336 338 338 338 339 340 341 342 342 343 344 345 346 346 347 348 349 350 351 351 350 350 351 351 352 352 352 352 351 350 350 350 350 350 349 349 350 350 349 349 348 347 345 344 343 340 337 336 335 334 334 333 332 333 331 331 330 330 330
Wind_Speed
13 10 8 6 5 2 2 1 0 1 0 2 2 0 2 1 0 0 1 4 1 3 3 4 7 3 2 1 6 7 7 2 1 4 2 3 6 9 7 9 8 7 6 3 2 4 7 12 16 19 20 20 20 20 19 18 18 18 18 18 18 17 17 16 16 15 15 14 14 14 14 14 14 13 12 12 11 11 11 11 10 10 9 9 9 9 9 9 8 9 8 8 7 8 8 7 7
10 8 8 5 4 4 1 1 0 1 1 2 2 2 2 1 1 2 4 5 3 3 5 4 6 7 5 8 11 5 7 7 2 3 5 7 9 7 8 9 8 10 7 3 3 2 3 8 15 17 19 20 20 20 19 18 18 18 18 18 17 17 16 16 16 15 14 14 13 13 14 14 13 13 12 11 10 10 10 10 10 9 9 8 8 8 8 8 8 8 8 8 7 8 7 7 6
10 10 6 4 3 2 1 0 0 0 1 1 3 2 2 1 3 3 4 4 2 5 8 6 7 6 5 2 5 3 1 6 8 7 7 11 13 8 9 10 9 8 8 4 4 3 2 6 10 16 19 20 20 20 19 18 18 18 17 17 16 16 15 16 15 14 14 13 13 13 13 13 13 12 11 10 10 10 9 9 9 9 9 9 8 8 8 7 8 7 7 7 8 7 7 7 7
9 6 8 6 2 2 1 1 1 2 0 3 2 2 4 4 6 5 3 3 4 9 7 7 5 3 3 6 4 8 6 5 6 10 9 9 3 11 10 11 10 7 6 5 5 4 3 9 9 12 18 20 19 18 18 18 18 18 17 16 15 15 15 15 15 14 13 13 13 13 13 13 12 11 10 10 9 9 9 8 8 8 8 8 8 7 7 6 7 6 5 6 6 7 6 7 7
9 5 4 2 1 1 1 1 1 1 1 2 1 1 4 4 6 1 7 6 6 8 8 6 4 4 6 7 2 0 4 8 9 5 6 5 9 9 10 10 9 8 7 6 5 5 4 10 10 11 17 19 19 18 18 18 17 17 16 15 15 15 15 15 14 14 13 13 13 13 13 12 11 10 10 9 9 8 7 7 7 6 7 6 6 6 6 6 6 6 5 5 4 5 5 6 7
6 4 4 2 0 1 1 2 1 3 6 2 1 2 4 5 5 10 9 6 5 5 6 5 4 5 4 4 2 4 8 5 8 5 6 8 12 10 10 9 9 8 8 6 6 5 5 10 12 14 17 18 18 17 17 17 17 17 16 15 15 15 15 15 14 14 13 13 13 13 12 12 11 10 9 8 7 7 6 6 6 6 5 5 5 5 5 5 4 4 5 6 4 4 4 4 5
8 4 2 2 1 1 2 2 5 3 6 5 3 1 5 3 8 11 11 8 6 8 3 6 12 11 8 3 6 4 1 9 7 7 6 13 13 13 12 9 10 10 9 7 6 6 7 12 13 15 17 18 17 16 16 17 17 17 16 15 15 15 15 15 14 14 13 13 13 12 11 11 10 9 8 7 7 6 6 6 6 5 4 4 4 4 4 4 4 4 4 4 4 4 3 3 4
5 1 2 1 1 0 2 3 5 3 4 6 2 4 6 5 10 11 9 9 6 3 6 8 1 7 4 4 4 4 5 4 9 11 14 13 14 14 12 10 11 11 9 7 6 6 11 14 15 13 15 18 17 16 16 16 16 16 16 16 15 14 14 14 14 14 13 13 12 11 10 10 9 8 7 7 6 5 5 5 5 4 4 3 3 3 3 3 3 3 3 3 3 3 3 3 3
4 1 1 2 2 0 3 4 5 3 5 2 3 2 7 8 9 10 8 3 7 5 7 8 5 7 2 7 5 5 7 12 13 14 14 16 15 16 10 11 12 11 8 8 7 7 7 12 15 17 17 17 17 16 16 16 16 15 16 15 15 14 14 14 14 14 13 12 11 10 9 9 8 8 7 6 6 5 5 4 4 4 3 2 2 2 2 3 3 3 2 3 2 1 2 3 3
2 0 0 1 1 4 2 5 1 3 3 4 5 4 7 8 9 8 11 8 6 9 5 3 4 9 8 9 7 4 6 13 14 13 12 14 15 14 13 12 10 12 8 8 7 8 7 14 14 16 18 17 17 16 16 15 15 15 15 15 15 14 14 13 13 13 13 11 10 9 9 8 8 7 7 6 5 5 4 4 4 3 3 2 1 1 2 2 1 1 3 3 1 2 2 2 2
3 1 0 1 1 2 2 6 4 6 3 1 3 5 8 10 10 9 6 9 7 6 8 12 8 12 7 5 3 5 11 12 14 15 16 15 14 13 12 13 13 10 9 9 9 9 8 9 17 15 16 17 16 16 15 15 15 15 15 15 15 14 13 13 13 13 12 11 10 9 8 8 8 7 6 6 5 4 4 4 3 3 3 2 2 2 2 1 1 2 2 2 2 2 2 3 3
2 3 2 2 3 3 4 3 5 5 6 2 3 8 5 11 11 10 10 12 7 7 7 4 6 10 8 4 3 8 12 11 12 13 14 14 12 13 12 10 13 10 8 8 9 8 8 9 10 14 17 16 16 16 15 15 15 14 14 14 15 14 14 13 12 12 12 11 10 9 8 8 8 7 6 6 5 4 4 4 4 3 3 2 2 2 2 2 4 4 3 3 3 3 2 3 3
2 3 2 0 3 2 3 3 5 3 4 2 4 5 9 14 13 13 10 10 11 10 7 2 16 2 5 3 5 10 12 11 12 13 14 12 11 10 11 11 12 11 10 9 10 8 9 8 8 8 11 17 16 16 15 15 14 14 14 14 14 14 14 13 12 12 12 11 10 9 9 8 8 7 6 6 5 5 4 4 4 3 2 2 1 2 2 3 5 5 4 4 3 3 3 2 2
3 4 3 3 1 2 2 4 2 1 4 4 3 9 11 10 10 14 13 12 11 10 4 13 7 9 9 7 6 8 8 11 13 12 11 11 9 10 11 11 11 11 10 10 8 8 8 7 6 6 8 9 8 12 15 15 14 15 15 14 14 14 14 13 12 12 12 11 10 9 8 8 8 7 7 6 6 5 4 4 3 2 1 2 1 1 2 3 5 5 4 4 3 3 2 1 1
5 1 1 2 4 1 3 2 3 4 5 4 6 13 10 4 13 11 17 14 6 5 11 5 7 9 7 11 6 10 11 13 14 13 11 11 11 10 10 10 10 10 10 9 8 8 8 7 7 6 6 6 7 5 6 11 15 14 14 14 14 15 14 13 13 12 11 11 11 9 9 9 7 7 7 6 6 5 4 4 3 1 1 1 1 2 3 3 4 4 4 2 3 3 3 3 4
5 1 1 2 4 2 5 3 2 3 3 4 9 10 10 6 8 13 8 11 6 8 10 5 6 1 7 8 9 15 15 15 13 13 11 12 10 9 10 10 9 9 8 8 8 7 7 6 6 6 5 6 5 5 5 6 12 15 14 14 14 14 14 13 13 12 11 11 11 10 10 6 6 5 8 5 6 6 5 4 5 3 1 1 1 1 2 2 2 2 2 2 1 1 2 2 1
4 2 3 1 7 3 3 2 2 0 1 4 12 13 10 9 6 3 6 8 17 13 7 5 6 1 15 5 13 15 16 14 13 14 12 9 9 9 8 8 8 8 7 8 7 7 8 7 7 6 6 6 6 6 5 5 9 15 12 14 14 14 13 13 12 12 11 10 9 9 9 5 3 3 3 3 6 3 5 6 5 4 2 1 0 1 2 2 1 1 1 1 0 1 1 2 2
4 4 4 6 8 5 5 5 2 1 4 8 13 12 16 12 5 5 10 2 10 11 3 6 3 5 9 11 14 16 16 16 15 15 11 10 9 9 9 9 9 9 9 7 7 7 7 6 7 7 6 7 6 6 4 4 6 11 5 6 6 9 10 11 9 5 7 4 9 6 4 3 3 2 3 4 3 2 3 6 6 5 3 1 1 1 2 2 1 1 1 1 2 2 2 0 1
6 2 3 9 4 6 4 4 2 1 6 5 10 15 19 14 15 9 9 7 11 8 5 6 8 9 12 14 16 16 17 16 16 14 14 13 11 12 11 9 10 9 9 8 7 8 7 6 6 7 7 7 7 6 5 5 6 4 5 5 4 8 6 7 4 6 4 5 4 4 4 3 3 2 2 3 3 5 4 7 7 6 4 2 1 1 1 1 1 1 3 3 2 3 2 2 3
9 3 6 9 8 4 5 5 7 1 11 6 11 10 12 12 11 9 9 14 9 12 12 8 11 13 15 15 17 17 16 16 15 15 14 13 11 12 12 12 11 10 10 9 9 7 7 7 7 7 8 8 7 6 5 5 4 4 4 4 4 4 4 4 4 3 3 4 3 3 3 3 3 2 4 8 7 3 4 6 7 6 6 3 3 3 3 2 4 3 2 2 1 1 2 2 2
3 7 7 7 4 6 9 8 10 4 13 13 10 6 10 13 11 9 14 12 7 5 14 21 17 18 18 19 18 17 17 16 16 15 13 13 11 9 10 10 10 9 8 8 7 8 9 8 7 7 7 7 7 6 6 5 4 4 4 4 4 4 4 3 4 3 3 3 3 3 2 2 2 2 2 3 4 3 3 3 3 2 0 1 2 2 2 1 2 1 1 1 0 1 1 1 2
1 13 15 12 7 6 13 8 1 3 10 15 9 13 11 8 6 11 20 15 12 14 15 14 21 21 22 21 20 17 18 17 17 16 15 16 16 13 11 9 7 7 7 8 9 8 9 9 8 7 7 7 7 6 6 6 5 5 5 5 4 4 4 3 4 3 3 3 3 3 2 2 2 3 2 3 4 3 3 3 3 2 2 2 0 2 1 1 0 1 0 1 2 1 1 1 1
10 11 10 12 11 8 14 14 4 8 6 10 11 10 10 12 9 14 18 14 13 17 17 13 19 22 21 20 21 19 19 18 18 17 17 16 14 13 13 11 11 10 9 9 8 8 8 9 8 8 8 7 7 6 5 5 5 5 5 5 5 5 4 4 4 4 4 3 3 3 4 4 3 3 3 3 4 3 4 4 3 4 4 4 2 3 2 2 2 2 2 2 1 2 1 1 1
11 11 6 10 6 12 15 14 16 0 10 11 9 8 14 10 9 11 11 3 2 12 14 14 14 16 18 19 20 22 20 19 19 17 16 15 15 15 14 13 11 8 9 10 9 8 9 11 10 9 8 8 7 7 6 6 5 5 5 5 5 5 5 4 5 5 4 4 4 4 3 4 4 4 4 4 5 3 4 4 4 4 4 4 2 2 2 2 2 3 3 2 1 2 2 2 2
12 13 14 11 7 10 12 12 13 7 5 5 9 13 14 17 12 10 12 3 11 13 15 16 17 17 16 18 18 18 17 17 16 15 13 10 12 11 10 9 10 10 11 11 10 10 10 10 10 10 9 9 7 7 7 6 5 5 5 5 5 6 5 5 5 4 5 5 4 4 3 4 4 4 4 5 4 5 5 4 4 4 4 4 2 3 2 3 3 3 3 2 1 2 2 3 2
13 15 10 9 10 11 12 12 13 13 3 10 6 13 15 9 7 13 6 6 12 15 16 18 19 18 18 18 19 18 18 19 17 16 16 12 13 13 13 11 11 12 13 11 11 10 9 10 11 11 10 10 9 8 6 6 6 6 6 6 5 6 6 5 4 5 5 5 5 4 5 5 5 5 5 5 5 6 5 3 3 4 4 3 3 4 4 3 4 2 2 2 2 2 2 4 2
3 11 13 14 16 15 14 12 14 12 4 10 13 12 8 5 11 4 2 11 13 16 17 17 19 20 18 17 16 16 18 19 19 15 13 12 13 13 13 12 13 13 12 12 11 10 9 10 11 11 10 9 8 8 7 7 7 7 7 6 5 6 6 5 5 5 5 5 5 5 5 6 6 5 5 5 5 5 4 3 4 2 2 3 3 4 2 3 3 4 3 3 2 2 2 1 1
10 6 7 13 15 15 15 14 16 9 7 11 11 13 9 8 6 10 11 14 18 18 17 18 18 17 16 17 15 13 14 14 14 15 18 16 13 13 14 13 14 13 13 14 11 10 10 12 12 11 11 10 9 9 8 7 7 7 7 6 6 6 5 5 5 5 6 6 6 6 6 6 6 5 6 5 6 5 4 4 4 2 4 2 3 3 2 2 3 3 2 2 1 1 2 0 0
10 10 12 12 12 14 15 15 17 10 8 8 9 7 7 8 13 9 15 17 18 20 19 18 18 16 15 15 13 13 14 15 14 14 16 14 13 12 15 13 13 13 11 12 11 11 13 12 12 12 11 10 10 10 9 8 7 7 7 7 6 6 6 6 6 6 6 6 6 7 7 7 6 6 6 6 6 5 4 4 3 4 4 3 3 3 2 1 2 1 2 0 1 1 1 1 0
5 5 5 6 5 9 12 13 16 15 6 9 10 5 10 15 11 11 15 17 16 17 16 16 15 15 14 14 13 12 12 14 15 14 14 13 13 14 14 14 14 12 11 10 11 13 11 9 9 9 11 11 11 10 8 7 8 7 7 6 6 7 6 6 7 6 7 6 6 7 7 7 6 5 5 5 4 5 4 4 5 5 5 3 3 3 3 2 3 2 2 0 1 0 1 1 2
5 6 1 4 4 11 4 6 10 14 8 11 14 10 7 10 6 15 16 19 21 18 17 17 15 15 14 14 13 14 15 15 16 15 15 14 13 12 14 13 14 13 10 11 13 13 12 11 9 9 11 11 11 10 10 9 8 7 7 7 7 7 7 7 7 6 7 7 6 6 7 7 6 6 5 5 5 5 5 5 4 5 4 3 3 3 3 3 3 4 3 2 0 1 2 1 1
1 3 6 2 7 11 7 5 5 11 4 13 12 9 9 9 11 16 17 18 21 20 19 18 16 15 15 14 14 14 14 13 14 14 15 15 14 13 15 15 14 14 13 12 12 12 13 11 11 11 12 12 11 11 10 9 9 8 7 7 7 7 7 7 7 7 7 6 6 6 7 7 6 6 6 5 6 5 5 5 5 4 4 3 4 3 2 4 4 2 1 1 1 0 1 1 1
2 8 5 7 2 7 8 6 3 12 7 11 18 7 1 1 10 15 17 20 19 19 19 18 18 18 16 15 13 13 12 12 13 14 15 15 14 13 14 15 15 15 13 13 13 12 13 13 13 13 13 14 13 12 10 8 8 8 8 8 8 8 8 8 7 7 6 7 6 7 6 7 7 6 6 6 6 5 5 5 4 4 3 4 4 4 4 3 3 3 1 1 2 1 1 0 2
7 1 7 5 7 4 6 9 7 6 10 8 14 7 8 5 14 16 15 19 18 16 19 19 17 16 16 14 14 14 14 15 17 17 17 16 13 15 14 14 15 14 14 14 13 14 14 12 12 12 11 13 12 11 10 9 8 8 8 8 8 8 9 8 7 6 7 7 6 7 6 7 6 6 6 6 6 5 5 5 4 4 4 4 4 3 4 2 2 2 3 1 1 0 0 0 0
6 4 4 7 3 5 10 3 4 2 12 14 12 4 6 5 15 16 18 18 19 20 19 20 18 16 15 14 14 16 15 17 18 17 18 16 15 14 13 14 14 14 12 14 13 13 12 11 11 12 12 12 12 11 10 9 8 7 7 8 8 8 7 8 7 6 7 6 7 7 6 6 6 6 6 6 6 5 5 4 4 4 4 5 4 4 3 2 1 1 3 2 1 1 1 0 0
4 5 5 3 5 7 6 5 3 6 7 10 14 12 8 7 14 15 16 18 18 17 15 14 14 15 16 15 15 15 16 19 17 15 17 16 14 14 13 13 13 13 12 12 14 13 13 12 11 10 11 12 10 10 9 9 8 8 9 7 8 8 8 7 7 7 6 6 6 7 6 6 6 6 6 6 6 5 5 4 4 4 4 5 5 4 4 4 4 3 3 2 2 1 0 0 1
6 3 3 7 7 9 7 4 7 4 6 11 14 14 12 14 17 19 19 15 12 11 14 14 15 15 16 15 16 18 19 20 17 16 16 17 17 15 13 12 13 13 13 13 14 14 14 14 13 14 12 11 11 11 10 10 10 9 8 10 10 9 8 8 8 7 7 6 6 7 6 6 6 6 6 6 6 6 5 4 4 4 4 5 5 6 5 5 3 3 2 0 1 0 1 1 0
8 7 6 9 6 11 9 2 4 1 5 7 8 11 11 16 17 17 16 16 18 18 17 17 18 17 16 19 19 18 20 12 10 11 13 13 14 15 13 12 13 15 14 15 17 17 15 15 15 13 10 12 12 12 11 10 10 10 10 10 9 8 8 8 8 7 7 5 6 6 6 6 6 6 6 6 6 6 5 5 5 5 5 5 5 3 3 3 3 3 2 1 1 2 2 0 2
8 8 7 7 11 7 10 6 7 3 5 7 3 6 7 12 17 16 19 22 20 19 22 23 22 19 16 17 19 19 13 11 14 17 17 16 18 17 15 14 15 18 18 18 17 15 14 14 14 13 12 12 12 12 11 11 10 9 9 8 10 8 6 7 7 6 5 6 6 7 7 6 7 6 7 7 7 6 6 6 5 5 5 5 4 3 3 4 4 4 4 4 2 0 1 1 2
7 7 5 11 8 1 8 3 3 1 6 2 7 8 4 5 6 15 19 19 17 18 20 19 20 22 20 21 20 18 17 15 17 18 18 17 17 16 16 15 16 15 14 14 14 16 14 14 14 14 14 13 12 13 13 11 11 9 8 7 7 7 6 5 4 3 4 5 6 6 6 7 8 7 7 7 6 6 6 6 5 5 6 5 6 6 5 5 3 3 3 3 2 1 0 1 1
7 8 8 10 8 8 7 6 2 2 4 4 2 4 3 8 8 8 11 13 9 11 12 12 14 17 21 21 19 19 22 20 19 18 17 17 17 18 19 19 16 16 16 16 17 17 13 18 17 17 14 14 13 13 13 11 9 9 7 4 3 4 2 3 4 6 6 7 7 6 7 7 8 8 8 8 7 7 6 6 6 6 6 5 5 6 6 6 6 5 5 4 3 3 2 1 1
9 11 11 11 7 5 6 5 5 5 7 1 6 1 5 8 15 17 14 11 13 11 14 18 18 16 13 14 18 18 18 20 22 22 22 21 21 19 19 17 16 16 17 17 18 19 18 16 15 15 13 12 13 13 13 11 11 11 9 9 9 9 10 8 11 11 9 8 9 5 6 8 8 8 8 8 7 6 7 6 6 6 6 6 6 6 5 4 4 4 5 6 4 3 3 2 2
7 12 7 8 7 5 5 3 2 4 6 6 4 7 4 2 12 14 11 16 20 13 17 19 17 16 16 16 16 17 18 17 15 18 21 21 21 21 20 19 19 19 19 17 17 17 17 15 15 16 14 13 13 13 14 12 12 11 14 14 12 12 12 10 7 6 8 7 6 7 7 7 8 9 8 7 7 7 7 7 7 6 6 6 5 5 5 6 5 5 4 4 5 4 3 3 3
12 8 3 1 3 6 9 5 5 7 3 4 2 3 4 3 9 13 17 18 19 17 17 18 17 16 18 17 17 18 18 19 18 18 18 20 20 21 21 22 20 21 20 17 16 15 17 16 16 16 14 13 13 13 14 14 13 12 12 13 12 12 13 11 9 7 6 6 7 7 6 7 8 8 7 7 7 8 7 7 7 6 6 6 6 6 6 5 4 3 4 5 4 4 5 5 4
10 1 5 7 4 5 6 4 6 6 5 12 7 4 4 4 6 13 18 15 16 18 19 19 19 19 20 20 19 20 20 20 20 18 20 21 21 21 21 21 22 23 20 18 18 17 18 17 17 16 15 14 13 15 15 16 14 14 13 12 12 11 11 9 6 5 6 6 7 6 6 7 7 8 7 7 8 8 8 8 7 7 6 6 6 6 5 5 6 6 4 3 4 3 4 3 4
12 4 5 4 3 4 4 6 5 4 4 12 14 7 7 6 5 7 9 17 21 21 21 21 22 23 22 20 20 20 18 17 18 20 21 22 23 24 24 24 22 19 18 19 19 17 17 16 17 17 17 15 14 16 16 17 16 14 13 13 15 12 9 7 5 7 7 6 8 7 6 7 7 7 7 7 8 8 8 8 8 8 8 7 6 6 6 5 5 5 5 5 4 4 3 3 5
1 3 7 12 8 3 1 3 4 1 8 14 14 8 9 8 7 10 12 15 18 16 15 16 18 19 20 21 21 20 19 18 18 19 19 20 22 23 22 21 21 19 16 17 16 16 15 16 17 18 18 15 15 17 17 18 16 15 14 15 16 14 11 9 7 7 6 6 8 8 7 8 6 7 7 6 8 8 8 8 8 8 7 7 6 6 6 7 6 5 5 4 5 6 4 4 3
7 3 5 4 10 6 5 2 2 6 14 7 9 10 9 10 6 6 13 18 22 22 21 22 21 23 22 20 20 20 20 19 19 18 19 19 17 17 16 19 19 19 16 16 15 15 15 16 16 18 17 17 16 16 18 18 16 16 15 15 15 14 13 10 11 11 10 10 10 9 8 6 6 6 6 7 7 8 8 7 8 7 7 7 7 6 6 6 5 4 4 5 5 5 4 4 3
9 6 3 8 2 2 7 3 8 12 11 2 7 6 2 14 8 8 12 15 18 19 19 22 24 24 24 23 23 20 19 18 18 19 18 17 18 19 18 19 18 17 17 18 18 17 16 16 18 19 19 18 17 17 18 19 17 17 16 16 15 13 13 13 12 11 10 10 9 9 8 8 7 7 8 8 8 10 8 8 8 7 7 7 7 6 5 5 5 5 5 5 5 5 5 5 5
11 12 9 7 8 8 9 6 2 5 6 3 5 5 9 2 7 13 13 17 20 22 21 21 24 25 25 24 22 19 18 19 19 19 18 18 19 19 20 20 20 19 20 20 19 18 16 16 18 20 20 19 17 17 18 18 19 18 17 15 14 12 12 12 11 11 10 9 9 10 10 10 9 10 9 10 9 9 8 9 9 8 8 7 7 6 6 5 5 6 5 6 5 5 4 4 5
11 5 9 10 5 4 6 5 12 10 7 4 2 4 6 9 7 8 14 17 19 20 22 22 22 23 25 25 20 20 18 18 18 18 19 19 20 20 19 20 19 19 21 21 18 18 17 17 19 20 19 19 18 18 17 19 18 18 16 15 13 12 12 11 11 10 10 10 9 9 9 8 9 9 9 8 8 9 9 8 8 8 7 7 6 6 5 5 5 5 5 6 5 4 5 5 4
5 8 4 7 16 5 5 6 3 3 4 5 3 6 6 8 3 6 13 14 16 19 21 22 20 17 17 11 12 15 17 18 17 18 19 21 20 20 19 19 19 19 20 19 20 18 18 19 19 20 21 20 20 19 18 19 18 16 16 15 15 14 11 10 9 9 9 10 10 10 10 9 9 8 7 7 8 9 9 9 8 8 7 7 6 6 6 6 5 6 5 4 5 3 5 5 5
4 9 13 13 7 7 5 5 3 0 2 8 2 4 6 7 5 5 6 10 14 13 16 17 18 17 14 14 15 17 18 18 18 19 19 21 19 18 19 19 19 19 18 19 20 20 21 19 18 20 20 18 19 20 20 18 18 16 17 16 15 14 14 13 13 13 12 10 10 9 9 9 8 7 7 8 9 8 9 9 9 8 8 7 7 6 6 6 6 6 6 6 6 5 5 7 5
5 9 10 3 2 4 7 8 4 7 9 6 3 8 4 3 9 2 5 6 10 11 16 18 18 15 10 14 15 17 19 20 21 22 20 20 20 21 20 19 20 20 21 21 22 20 19 19 20 21 20 21 20 20 19 18 18 17 16 16 16 16 14 14 12 12 11 10 9 9 8 7 9 8 8 8 8 9 9 9 8 8 8 7 8 7 7 6 7 7 7 7 7 6 6 5 5
14 9 8 10 5 11 4 2 12 8 10 3 2 2 6 10 6 2 5 7 11 9 10 12 15 14 13 13 15 17 18 17 17 18 17 17 18 19 20 21 22 21 21 22 21 20 18 17 18 20 22 23 22 19 18 16 17 14 14 16 17 15 14 13 12 11 10 11 11 10 10 9 8 7 7 8 8 9 8 8 8 9 8 8 7 7 7 7 7 7 7 7 6 6 7 7 6
8 5 7 5 6 9 8 9 2 4 6 3 6 2 12 6 7 8 10 10 11 12 11 12 16 15 14 14 15 16 17 18 18 18 18 20 20 21 22 22 21 21 20 19 18 16 18 19 19 18 18 17 16 18 18 18 18 16 14 14 14 15 14 13 12 12 12 13 12 11 11 9 10 8 9 9 9 9 9 9 9 9 9 8 8 7 8 8 8 8 8 7 7 7 7 7 6
10 7 9 4 4 1 7 1 8 7 4 4 3 6 10 6 7 10 11 12 12 12 13 13 15 15 15 16 16 16 18 18 18 18 19 20 21 21 21 21 21 21 20 18 16 19 20 17 18 19 19 19 19 20 18 17 15 16 15 16 16 14 15 13 13 13 13 12 11 11 11 10 7 9 9 9 9 9 10 10 10 10 10 9 9 8 8 8 8 8 8 8 8 8 8 7 6
12 12 13 12 9 4 11 11 2 3 5 7 5 17 7 4 6 10 10 10 10 11 12 12 13 15 17 16 17 17 17 19 19 19 19 20 21 21 20 19 18 17 15 15 18 18 17 18 19 18 18 18 20 19 18 18 16 15 17 16 16 14 14 12 14 14 14 13 12 12 10 9 10 10 10 10 10 9 9 10 10 10 10 9 9 10 9 8 9 9 9 7 8 8 8 7 6
Wind_Direction
156 165 149 154 146 147 122 310 115 253 337 268 300 15 271 28 36 238 130 87 359 192 175 91 126 98 153 173 114 105 27 112 27 143 193 139 134 140 147 136 137 137 135 134 120 127 157 136 136 132 130 127 126 127 124 122 120 120 120 120 123 124 123 121 118 118 119 118 117 118 118 115 112 112 113 114 115 116 116 116 111 110 110 109 105 103 100 97 96 94 90 91 94 97 101 110 114
157 149 146 151 146 137 207 202 120 7 31 340 263 143 260 189 58 237 183 195 197 165 141 130 105 100 88 114 134 143 38 22 61 95 86 121 124 130 143 139 146 141 138 122 98 132 115 136 135 134 131 130 130 129 127 125 124 123 123 124 125 127 124 121 120 121 122 121 121 121 117 113 113 115 117 119 119 117 115 113 113 112 116 115 110 108 105 104 101 100 104 103 99 99 104 104 109
156 149 145 158 129 282 338 230 353 113 49 345 274 210 103 106 236 219 212 216 221 116 121 106 110 109 127 118 61 0 251 68 103 112 111 140 133 153 143 143 140 139 136 129 130 107 109 130 133 136 135 132 133 132 131 129 129 127 127 127 129 129 126 122 122 124 124 124 124 121 116 116 117 121 123 123 122 119 117 119 123 127 128 126 122 115 113 112 109 104 105 102 100 98 100 106 107
149 163 153 167 142 357 305 18 144 129 141 220 296 258 182 194 231 215 204 131 137 119 118 127 117 317 116 57 89 83 99 110 124 133 134 157 157 147 148 143 139 137 131 137 136 131 138 141 134 142 139 136 136 135 133 132 131 131 130 131 132 130 127 125 127 127 128 129 127 122 120 121 124 127 130 129 126 126 125 128 128 131 129 128 125 121 118 115 107 98 96 100 102 104 106 101 102
155 171 173 218 129 275 145 215 187 122 223 203 208 231 205 198 223 191 123 129 126 129 129 123 91 40 86 106 155 91 132 107 130 141 120 100 123 145 144 138 137 138 139 138 136 134 143 145 145 148 143 141 139 137 136 135 134 134 134 133 134 133 130 129 130 132 134 133 129 125 126 128 131 135 135 134 131 127 130 131 132 130 130 129 128 122 118 119 118 115 107 96 98 102 107 105 96
143 158 244 319 358 106 47 8 257 227 228 161 176 253 190 188 181 142 140 122 103 101 117 114 135 146 60 12 36 110 129 147 148 132 136 140 140 145 139 136 136 137 138 139 145 144 152 148 149 152 148 145 142 140 139 138 138 137 137 137 138 137 134 135 135 137 138 135 128 128 131 134 139 139 136 131 128 127 129 132 133 131 130 133 132 131 128 128 127 115 113 115 124 118 107 105 106
152 156 230 242 272 101 181 212 260 234 272 178 216 197 176 180 131 125 116 92 52 69 42 99 115 106 87 119 79 64 135 121 153 145 149 142 136 145 142 140 140 140 139 145 152 145 153 155 156 155 152 149 146 144 142 142 142 141 141 142 140 140 139 139 141 141 139 134 131 133 137 140 142 141 136 133 130 130 132 131 126 122 124 133 138 139 141 139 134 122 112 100 105 121 126 121 106
173 173 187 102 284 67 264 245 256 176 273 180 198 149 176 138 131 131 131 124 153 112 118 131 81 95 66 45 110 47 57 66 102 118 126 137 141 146 147 142 142 143 141 145 153 146 160 160 158 158 160 154 151 148 146 146 146 145 145 145 144 142 143 143 144 143 140 135 135 140 143 143 144 142 138 137 135 136 131 124 122 121 123 127 131 134 140 141 141 133 117 122 107 109 125 118 114
187 168 64 41 301 265 294 256 265 203 263 275 252 170 175 142 144 133 128 112 113 115 125 127 157 91 175 86 76 100 85 103 107 121 133 138 144 149 149 151 150 150 145 149 148 149 158 164 161 167 164 159 155 151 149 149 150 150 148 147 146 145 146 147 147 145 141 139 141 145 146 146 146 145 145 141 144 143 131 127 129 131 134 142 140 135 140 148 137 126 106 95 101 98 107 115 110
198 302 286 181 144 288 301 289 245 241 228 204 195 188 166 146 143 136 128 130 127 120 105 62 72 110 118 101 115 94 113 116 123 123 132 141 147 150 150 153 150 148 144 152 151 154 157 164 164 168 163 161 159 155 153 153 154 153 151 149 149 149 148 151 149 146 144 143 145 147 148 151 152 151 149 151 152 150 147 144 143 137 137 142 124 116 86 79 82 56 60 70 107 89 88 122 106
161 51 183 355 328 311 273 280 264 302 258 151 176 188 173 140 137 129 126 120 131 118 111 105 82 116 114 99 62 100 124 123 134 141 147 148 150 151 151 156 155 149 150 157 159 157 162 163 169 170 166 161 162 158 156 157 157 155 153 152 152 152 152 152 152 149 148 148 149 150 151 155 158 158 159 157 159 164 166 164 160 158 149 152 125 109 113 29 67 73 65 64 81 97 86 79 82
120 182 149 206 218 194 246 239 271 261 273 255 189 172 173 139 132 135 136 137 126 127 141 153 145 126 88 113 130 139 135 137 138 143 147 147 150 151 150 152 155 151 153 155 160 158 162 160 168 174 168 163 164 162 162 160 160 158 157 157 156 155 156 157 155 153 153 151 153 153 157 161 165 169 167 163 167 181 182 176 175 181 164 163 136 118 107 70 76 72 65 65 93 98 80 62 67
168 157 169 137 237 176 240 266 265 287 312 246 154 151 144 144 160 149 147 127 136 139 176 214 141 171 106 127 129 142 149 147 144 149 147 149 147 146 148 150 156 153 155 160 159 161 161 167 165 164 166 166 165 165 166 164 162 162 161 160 159 159 161 160 159 159 157 158 157 158 161 163 168 173 174 175 182 194 195 192 188 181 170 156 117 104 99 87 83 78 68 59 73 81 79 60 70
176 186 151 246 186 215 213 242 251 300 282 237 123 144 146 156 162 147 132 136 156 158 144 137 136 113 94 112 149 164 159 150 148 148 148 144 142 141 144 149 151 152 158 161 161 161 163 164 164 164 166 164 166 166 169 168 167 166 166 165 164 164 164 164 163 163 162 162 163 163 165 170 174 179 183 189 196 201 206 210 208 194 171 166 131 63 56 67 77 83 79 62 57 51 46 46 46
218 170 236 233 292 352 237 198 205 174 251 191 147 142 150 152 142 151 147 136 164 107 123 135 155 109 199 164 177 184 164 155 152 147 147 144 140 142 140 143 148 154 160 164 162 164 167 164 166 167 165 162 164 164 166 173 172 171 170 170 169 169 168 169 169 168 168 167 168 170 174 178 183 184 193 201 211 215 215 233 240 245 197 153 128 73 49 65 66 65 79 53 45 34 4 22 24
202 296 302 286 262 234 269 210 243 143 249 140 148 113 107 103 148 148 167 139 131 132 149 151 221 181 165 199 167 161 152 151 148 149 147 145 140 134 137 144 150 158 161 167 167 170 168 168 165 169 164 164 165 167 171 173 176 175 175 175 174 173 173 172 173 173 172 173 173 179 184 188 189 195 200 212 222 227 231 233 247 247 240 211 124 107 91 82 88 86 74 81 28 40 65 359 333
195 236 299 287 283 182 260 195 156 273 241 104 137 132 130 142 159 17 103 123 131 160 185 161 190 95 160 160 140 142 145 146 147 150 150 144 139 141 142 146 152 158 166 172 172 172 171 171 169 168 170 169 170 170 176 173 180 179 180 180 180 179 178 177 176 178 178 179 179 183 190 189 205 199 220 206 231 229 237 248 253 260 254 244 328 107 127 122 95 90 69 46 350 297 248 140 312
146 206 209 258 243 255 240 220 192 181 112 152 149 146 131 144 150 126 101 100 128 151 123 126 40 90 130 121 132 137 143 147 153 155 157 148 149 148 151 156 159 168 168 170 179 176 171 175 174 171 171 174 171 172 176 176 184 180 182 186 183 184 184 180 180 179 183 186 186 188 188 196 201 206 231 226 237 259 261 258 267 279 274 255 126 133 126 129 118 54 342 342 317 8 301 41 241
212 208 165 245 198 229 199 222 180 112 141 169 153 151 149 162 140 160 126 148 149 135 104 107 108 107 110 128 139 144 150 153 157 161 162 158 158 158 158 159 166 164 170 172 177 182 177 173 175 174 175 175 171 174 177 177 183 172 181 184 184 188 189 183 179 184 181 187 192 187 191 205 195 217 223 240 233 248 250 258 261 275 277 237 171 126 97 95 119 99 68 58 16 329 347 11 5
217 215 237 245 225 249 268 279 276 93 135 161 156 165 140 148 140 159 148 157 162 153 140 134 142 141 141 142 149 152 156 156 161 165 166 163 163 163 162 166 167 174 171 174 175 180 177 179 180 176 176 175 171 176 174 175 179 168 178 184 183 181 192 178 183 185 184 190 199 195 197 206 208 209 242 240 238 240 257 258 257 255 255 228 182 92 81 74 68 55 78 132 12 320 316 347 355
184 202 229 240 218 237 251 226 244 204 154 166 160 144 132 160 151 160 148 136 188 204 181 158 166 155 152 152 154 159 161 161 164 169 168 165 166 169 169 171 172 169 171 167 172 181 181 181 178 179 176 175 174 175 175 178 174 169 179 185 183 179 186 174 183 191 192 196 205 207 200 211 235 239 263 287 285 273 244 252 261 261 330 326 110 98 78 49 69 82 7 14 346 294 312 322 350
170 219 229 246 290 302 279 283 257 145 171 146 149 150 166 139 151 159 158 159 187 193 200 176 154 154 154 157 160 161 166 166 169 172 175 172 170 170 166 169 169 166 166 174 181 179 181 182 180 179 175 180 180 179 178 180 167 179 183 187 180 179 180 181 182 195 196 199 204 210 200 216 238 248 258 263 263 273 250 237 229 192 192 224 94 104 83 82 111 127 212 264 272 278 305 341 317
243 250 243 243 251 269 285 293 336 84 154 144 166 168 143 169 178 180 172 177 199 188 167 163 158 160 159 153 155 164 167 170 174 176 175 175 172 173 170 172 172 174 177 183 179 182 179 182 183 178 182 182 185 181 177 183 181 186 184 182 176 187 182 180 192 197 200 199 206 205 203 223 233 242 252 249 254 246 239 224 219 194 203 212 197 145 159 191 186 201 207 228 238 268 290 273 261
240 263 239 249 230 244 261 276 281 306 166 182 169 147 163 168 169 192 199 270 147 144 153 149 147 145 151 157 165 165 169 172 177 176 176 178 176 175 172 173 175 169 178 183 184 182 182 185 182 181 186 184 185 183 182 189 186 182 187 188 188 190 181 194 196 195 196 206 207 210 213 214 220 233 239 240 244 236 237 224 197 193 202 217 194 164 186 193 210 218 229 238 244 280 287 298 297
232 251 256 262 265 253 259 261 268 253 185 196 155 163 184 179 175 148 217 170 140 138 137 142 145 152 159 161 165 166 166 172 175 174 174 176 176 171 172 172 172 173 183 187 184 184 187 185 181 185 187 188 185 181 188 191 187 188 186 192 193 196 195 203 195 190 199 206 210 211 209 219 223 227 231 232 228 230 235 222 201 208 201 218 181 195 191 223 219 213 225 233 203 259 300 288 283
232 241 268 283 266 263 260 267 266 266 187 162 169 192 194 186 95 176 180 139 141 137 138 147 150 158 166 169 169 168 170 174 173 173 177 173 173 173 179 178 175 183 189 185 185 189 185 184 185 188 188 187 186 183 191 188 190 190 195 197 194 199 205 205 193 198 205 202 215 213 215 212 218 217 223 228 214 231 227 223 211 213 208 203 190 211 208 196 230 232 240 265 275 291 281 282 301
146 233 246 253 259 263 265 256 264 267 238 162 178 199 201 185 142 222 152 147 139 142 147 154 156 165 169 171 172 172 171 174 176 172 172 173 175 180 180 179 183 186 183 190 189 187 185 183 189 190 189 188 184 190 189 193 189 195 197 195 192 203 203 197 202 208 209 210 217 216 216 218 218 221 220 219 219 223 221 219 228 221 228 211 204 223 203 207 207 213 210 222 231 262 278 312 346
278 274 257 250 255 257 261 264 261 256 264 180 188 196 177 196 196 186 157 156 151 148 156 161 163 166 171 172 172 173 176 175 172 173 177 176 180 180 181 183 184 182 187 191 189 183 183 189 189 189 189 188 187 193 191 192 194 197 196 192 197 204 196 198 204 208 212 216 218 219 217 220 220 219 217 218 216 216 212 214 233 228 237 213 208 222 220 214 214 218 203 217 218 208 268 96 231
264 252 263 263 255 256 248 250 256 234 243 179 177 93 152 190 211 182 158 155 156 154 161 166 167 168 170 172 170 176 179 178 178 180 184 181 178 179 184 185 181 182 191 188 185 183 188 188 188 191 188 189 190 193 193 193 193 196 197 197 199 199 202 201 207 209 212 217 216 218 220 218 218 213 215 214 214 208 205 209 225 231 237 224 213 220 216 195 224 239 255 182 314 335 334 353 343
252 251 232 282 291 259 242 242 247 251 226 181 142 207 201 199 202 155 161 157 155 151 161 169 169 169 171 173 174 177 179 179 185 186 183 183 182 180 183 185 183 184 183 185 182 189 187 187 188 188 190 190 192 194 192 193 196 198 200 200 200 198 204 204 211 211 214 218 214 216 218 218 216 209 204 215 208 199 195 201 212 230 233 224 214 192 196 191 215 207 238 182 273 102 50 355 32
304 267 247 239 296 263 237 193 222 237 207 179 169 217 230 208 196 162 165 159 157 162 167 172 172 171 173 176 176 181 187 187 184 183 185 184 183 184 185 183 185 184 182 183 188 188 186 186 185 190 190 192 192 194 194 198 196 198 199 203 203 201 205 209 211 213 216 218 211 217 215 214 213 205 201 196 201 193 191 198 209 224 222 208 200 197 188 201 200 205 190 196 313 65 76 88 63
273 296 252 316 208 273 284 252 191 217 229 179 177 225 214 206 172 168 167 169 163 163 168 173 176 175 175 177 179 184 188 185 186 186 187 186 185 186 187 187 185 186 185 185 187 184 189 187 187 189 188 191 193 195 198 197 198 198 201 204 205 203 208 210 213 213 215 216 213 216 214 213 209 201 195 193 192 196 196 200 214 215 211 191 196 186 177 198 205 201 189 158 211 274 85 1 24
268 213 264 258 242 268 337 282 223 217 186 182 182 209 91 293 177 170 173 170 171 163 170 174 179 178 176 178 180 183 181 186 189 191 189 187 189 190 189 189 189 187 184 185 186 186 190 188 188 190 190 190 193 197 198 199 198 199 202 207 207 205 209 213 215 213 213 214 214 214 209 210 209 198 191 189 189 195 203 206 211 203 185 184 182 187 198 201 180 190 211 186 151 195 115 25 348
258 247 218 216 229 262 267 306 307 215 163 195 200 164 207 160 167 174 178 174 170 169 174 178 180 180 179 177 178 183 187 185 190 191 192 189 189 189 190 191 188 187 189 188 186 188 191 189 190 191 190 192 193 194 196 197 200 201 204 209 210 209 213 214 216 209 212 213 207 213 203 203 204 197 189 185 191 197 199 199 190 191 177 177 182 179 205 178 183 177 210 246 159 129 228 196 294
228 228 259 282 277 236 249 273 285 174 186 182 195 180 211 177 164 176 181 182 175 176 177 179 181 180 178 179 182 186 189 192 196 192 188 187 186 188 188 189 189 188 189 189 188 190 189 191 190 192 190 191 193 193 194 197 199 202 207 210 215 215 216 217 212 209 211 204 205 207 198 198 199 192 187 182 188 199 199 187 179 186 176 178 173 184 180 170 171 209 197 240 251 202 218 208 188
219 185 213 237 251 263 230 242 273 180 210 202 188 199 195 169 179 177 184 185 183 181 178 176 181 182 180 181 185 188 194 201 197 188 186 187 186 185 185 186 189 189 187 187 189 189 191 190 191 193 193 191 190 192 191 195 195 197 203 212 219 218 216 215 209 207 203 200 201 195 197 197 196 190 188 183 189 192 192 192 187 176 179 169 173 177 194 188 194 202 233 205 270 322 9 158 136
250 218 217 242 249 272 257 254 254 240 204 208 201 202 183 179 182 184 182 181 186 178 180 183 186 185 184 185 188 194 197 202 192 186 183 186 187 186 184 183 187 188 189 188 189 192 191 191 188 195 192 188 190 191 193 192 194 199 205 206 211 211 212 212 210 202 201 202 194 192 193 196 195 190 188 182 191 192 190 187 180 180 174 174 179 195 193 196 197 192 190 103 171 213 309 99 98
231 241 239 259 244 260 265 285 286 276 164 255 239 205 195 185 184 182 175 177 189 187 185 188 190 190 187 187 191 195 204 200 179 185 187 183 187 187 185 186 185 188 194 190 194 194 193 190 192 192 187 192 196 195 194 196 199 200 199 206 205 207 205 205 211 206 197 197 197 194 192 190 190 192 188 188 191 189 183 187 190 182 172 183 194 190 192 196 181 180 143 159 22 174 226 254 135
241 227 235 264 258 251 288 253 253 246 193 245 179 216 224 198 185 180 179 188 194 190 185 189 186 188 190 192 194 197 191 188 188 193 188 186 187 186 187 188 191 194 192 194 195 191 191 194 194 190 192 191 196 195 195 201 199 203 201 204 200 207 211 206 206 202 185 192 200 199 191 186 189 195 190 189 189 191 186 184 192 177 179 177 172 182 199 201 187 190 175 176 216 5 290 274 168
242 236 225 235 250 263 279 282 256 251 194 209 169 205 238 230 206 190 193 189 197 196 194 192 189 186 188 191 192 191 191 187 191 191 191 191 188 187 190 192 195 193 193 193 190 195 195 197 194 193 193 193 193 196 198 199 201 205 209 208 210 205 202 205 207 200 193 190 207 201 194 188 190 194 191 192 191 186 181 186 177 179 184 183 180 181 199 203 190 198 188 197 137 172 346 316 173
249 230 232 240 242 229 215 271 352 266 289 276 206 162 124 163 185 217 223 212 205 201 200 205 210 205 194 191 192 189 188 188 191 191 192 189 188 192 193 196 191 190 194 193 192 194 196 197 195 193 192 193 194 195 194 192 196 203 205 214 213 221 250 188 198 220 205 201 203 197 199 190 193 195 194 194 187 185 182 179 178 184 180 186 181 190 195 202 194 191 184 179 175 167 217 268 334
262 253 224 233 227 237 256 296 334 350 310 304 126 186 254 187 193 199 196 196 211 205 200 206 205 207 205 201 197 196 199 194 187 187 190 189 190 192 194 193 191 196 196 197 195 196 196 196 192 192 193 191 194 194 189 187 195 194 189 195 200 203 211 200 207 206 201 203 206 192 195 193 194 199 197 192 187 180 179 180 180 178 185 187 191 199 200 191 190 189 191 182 193 203 161 154 269
246 251 217 223 228 223 247 259 15 286 258 282 167 176 259 230 189 204 201 198 207 200 205 210 205 204 203 203 200 197 198 202 206 197 191 189 192 190 192 190 192 195 201 197 196 198 197 192 191 192 193 192 191 189 188 189 195 199 198 201 201 202 207 217 208 198 201 200 182 190 196 192 196 199 200 188 185 184 180 179 181 184 187 189 196 191 198 200 196 197 183 180 199 176 124 174 197
246 248 300 183 176 210 236 229 202 243 275 283 297 154 204 248 226 199 199 200 207 207 210 210 208 206 207 205 201 200 199 198 195 198 196 196 193 190 191 194 193 198 198 192 194 195 194 192 189 192 194 192 190 187 188 192 195 198 201 204 205 207 208 209 195 199 192 172 184 190 187 195 197 202 195 184 185 183 180 182 183 185 189 195 191 196 201 199 191 200 186 200 193 178 175 179 205
239 122 228 262 219 219 238 207 215 236 252 272 252 169 243 238 246 198 185 204 213 215 211 210 210 209 211 207 204 203 201 198 196 196 195 195 194 196 197 195 198 198 193 190 192 192 192 192 190 191 193 192 191 188 190 195 197 196 199 201 209 214 212 210 193 188 186 184 190 189 189 195 200 202 195 184 183 184 183 184 184 188 192 196 198 197 200 189 192 191 189 184 196 199 181 182 150
241 250 301 274 267 227 208 225 213 235 198 243 253 170 222 263 252 173 194 198 204 211 211 211 209 208 208 208 208 205 202 202 201 200 198 196 195 196 196 197 197 198 194 194 194 190 189 189 190 188 193 192 190 191 193 196 199 197 197 201 207 209 205 203 180 193 197 187 201 199 196 195 200 197 196 186 183 186 186 183 185 189 194 194 195 196 191 191 198 197 193 190 191 195 204 171 185
53 154 243 268 281 302 304 183 172 179 234 235 237 216 186 252 239 183 168 208 208 209 215 217 215 216 213 210 206 203 200 201 201 202 203 202 200 198 196 195 198 197 196 196 195 193 189 188 189 190 193 192 189 192 193 198 199 200 202 203 205 205 201 195 189 202 199 193 206 209 203 207 194 197 186 186 186 186 188 187 185 191 192 192 194 188 192 194 199 196 194 193 192 193 192 195 196
206 191 203 271 281 293 294 307 101 211 250 225 222 228 175 233 270 254 204 194 198 198 205 208 210 214 213 210 209 206 201 200 200 200 202 203 204 207 201 202 199 197 194 195 197 194 193 191 189 191 193 191 190 192 194 198 198 202 204 204 206 206 198 197 199 204 202 203 206 209 208 204 200 194 187 181 189 189 187 190 189 187 190 191 197 190 188 193 192 185 179 189 198 199 187 181 184
196 205 175 179 265 176 257 196 239 221 235 239 207 198 256 239 226 203 210 201 202 207 207 206 209 212 212 211 208 204 202 200 199 200 201 199 199 200 199 203 200 197 198 196 195 194 193 194 192 193 195 191 190 190 195 198 199 202 203 203 206 204 201 199 199 204 203 206 207 208 200 204 196 191 194 190 193 187 186 186 189 189 192 195 193 183 186 185 180 178 184 190 187 183 187 183 183
192 199 187 170 209 213 225 231 321 298 268 250 197 183 232 277 263 212 201 204 199 199 207 210 210 210 211 211 206 202 200 199 200 201 200 199 200 200 200 199 198 198 198 197 195 193 193 195 195 196 198 192 190 191 194 197 201 203 202 202 202 201 203 199 200 201 202 205 204 207 203 202 198 200 191 197 189 184 187 190 189 191 192 189 189 184 179 182 177 180 182 185 187 195 177 181 192
208 182 175 206 213 182 208 201 219 228 228 261 224 143 227 201 247 194 200 203 206 202 203 208 212 213 214 212 202 198 198 201 200 200 201 201 201 199 199 200 201 200 198 196 195 195 191 195 195 198 197 196 193 193 195 199 202 203 202 202 201 200 202 198 201 200 198 200 205 205 207 204 203 202 196 193 178 183 186 187 190 189 189 186 183 180 181 176 178 176 181 188 182 175 180 178 194
196 183 142 190 222 123 226 202 170 243 261 270 192 203 190 203 242 217 195 203 207 208 208 211 212 213 217 212 200 202 204 202 200 202 204 204 202 200 200 200 201 201 198 197 197 194 193 196 194 196 197 195 196 195 197 199 202 202 201 200 202 201 200 197 198 200 201 199 201 203 205 203 205 199 193 178 185 180 183 186 188 191 189 185 179 181 179 178 175 177 182 176 187 172 178 185 198
200 132 208 214 110 188 257 279 222 95 15 254 168 263 292 305 316 247 224 203 211 215 217 215 215 213 202 202 200 202 204 203 200 203 204 204 202 203 202 200 201 201 198 198 198 196 196 192 192 195 198 196 197 199 200 201 202 200 201 201 201 202 200 198 198 198 198 196 197 202 205 204 203 196 188 184 181 183 181 181 185 190 192 187 179 179 180 180 176 178 179 183 192 185 182 194 191
124 194 215 88 179 196 197 228 264 237 240 256 194 216 266 200 256 293 186 197 226 207 211 214 218 214 191 204 201 202 203 203 203 203 203 201 200 201 202 204 202 199 198 199 201 197 195 193 192 193 194 196 199 199 201 202 202 203 201 201 203 202 202 201 198 197 196 193 196 200 201 199 201 197 188 186 182 182 180 179 181 189 192 189 185 177 181 179 175 183 185 190 193 181 190 198 195
210 216 150 171 193 214 210 130 231 222 235 269 289 237 238 202 242 182 200 207 215 218 225 224 223 211 201 204 206 206 207 206 205 204 203 204 204 203 203 203 203 203 201 200 199 194 193 195 196 194 195 198 196 197 201 203 202 202 201 200 200 203 202 201 198 196 194 198 198 198 199 202 198 193 189 184 184 182 178 178 179 188 190 190 183 182 181 180 180 186 188 193 194 184 189 198 203
248 97 189 179 135 211 179 203 162 135 256 261 277 166 246 187 199 188 188 205 213 213 210 215 221 214 205 205 202 202 204 206 204 202 202 203 204 204 203 203 203 202 202 203 198 193 195 196 194 196 199 198 197 200 201 203 203 202 202 199 202 203 201 198 197 194 198 201 201 199 199 197 199 193 195 190 185 183 180 178 182 185 188 186 184 186 182 185 184 192 188 193 194 185 194 201 202
214 212 206 207 221 245 189 174 199 201 197 204 238 267 248 228 199 173 193 196 208 201 207 212 216 214 210 208 205 203 204 203 203 202 203 204 205 205 204 204 203 203 202 197 189 192 197 193 195 196 194 194 197 201 201 205 201 204 200 199 200 201 201 198 195 197 201 203 200 199 199 198 187 198 192 192 190 185 181 182 180 186 187 185 185 186 185 183 188 193 195 195 188 188 194 203 194
211 202 211 203 185 142 183 231 162 154 190 220 177 246 269 265 185 187 188 209 201 206 201 213 218 216 209 210 210 207 205 203 201 202 203 204 205 205 203 202 203 201 198 192 196 196 193 192 196 194 194 196 199 200 202 201 200 200 200 200 201 200 199 195 196 198 203 202 199 199 194 186 193 199 194 195 190 184 181 182 185 189 189 186 188 188 185 182 189 193 197 193 191 187 193 199 196